User: anonymous   Login
Location: Newark
(1.4667°N, 173.0333°E)
Time: 16:36:26
(UTC+00:00)
Language:

Hubble Space Telescope - Orbit

View from above orbital plane
View from above orbital plane
View from above satellite
View from above satellite

Ground track
Ground track

The orbit data is extracted from the following two-line orbital elements,

1 20580U 90037B   19109.01880788  .00000473  00000-0  17912-4 0  9992
2 20580  28.4689 253.1301 0002634 188.0613 116.2116 15.09209091391716
Epoch (UTC): 19 April 2019 00:27:05
Eccentricity: 0.0002634
inclination: 28.4689°
perigee height: 537 km
apogee height: 540 km
right ascension of ascending node: 253.1301°
argument of perigee: 188.0613°
revolutions per day: 15.09209091
mean anomaly at epoch: 116.2116°
orbit number at epoch: 39171

The dashed part of the orbit path shows where the satellite is in the earth's shadow,  

DLR